DW4300 Weather Reports


Display with metric or nautical units.
time (UTC)temp
F
wind
direction
speed
MPH
gust
MPH
rain 1hr
in
rain 24hr
in
rain mn
in
humidity
%
barometer
mb
20260504150722 69 209 13.0 21.0 0.00 0.20 0.20 65 1006.2
20260504150225 69 208 13.0 21.0 0.00 0.20 0.20 68 1006.2
20260504141222 67 203 12.0 22.0 0.00 0.20 0.20 72 1006.4
20260504140723 66 204 12.0 20.0 0.00 0.20 0.20 74 1006.6
20260504140224 66 204 13.0 22.0 0.00 0.20 0.20 73 1006.6
20260504130722 61 195 10.0 18.0 0.00 0.20 0.20 81 1007.0
20260504130224 61 193 10.0 17.0 0.00 0.20 0.20 81 1007.1
20260504120224 59 184 10.0 15.0 0.00 0.20 0.20 84 1007.3
20260504110224 58 183 9.0 14.0 0.00 0.21 0.20 86 1007.0
20260504100223 56 162 2.0 7.0 0.01 0.21 0.20 87 1007.3
20260504081724 57 185 5.0 10.0 0.08 0.20 0.19 87 1007.7
20260504080722 57 186 6.0 12.0 0.09 0.20 0.19 87 1007.4
20260504080223 57 190 5.0 12.0 0.09 0.20 0.19 87 1007.7
20260504070224 59 61 6.0 13.0 0.10 0.11 0.10 81 1007.1
20260504060223 61 229 4.0 11.0 0.00 0.01 0.00 70 1008.7
20260504050223 60 186 2.0 6.0 0.00 0.01 0.01 67 1007.7
20260504044723 61 188 3.0 7.0 0.00 0.01 0.01 66 1008.1
20260504044222 61 189 2.0 7.0 0.00 0.01 0.01 65 1008.3
20260504043722 61 185 1.0 4.0 0.00 0.01 0.01 64 1008.3
20260504043224 62 185 0.0 4.0 0.00 0.01 0.01 63 1008.4
20260504042722 62 186 0.0 3.0 0.00 0.01 0.01 62 1008.4
20260504042222 62 205 0.0 2.0 0.00 0.01 0.01 61 1008.5
20260504041723 63 251 0.0 4.0 0.00 0.01 0.01 61 1008.4
20260504041222 63 228 0.0 5.0 0.00 0.01 0.01 60 1008.6
20260504040722 63 209 1.0 6.0 0.00 0.01 0.01 60 1008.7
20260504040223 63 192 4.0 12.0 0.00 0.01 0.01 60 1008.6
20260504035722 63 187 7.0 16.0 0.00 0.01 0.01 60 1008.5
20260504035221 63 186 9.0 16.0 0.00 0.01 0.01 60 1008.6
20260504034724 63 182 8.0 13.0 0.00 0.01 0.01 60 1008.5
20260504034221 63 179 9.0 14.0 0.00 0.01 0.01 59 1008.6
20260504033223 64 178 8.0 14.0 0.00 0.01 0.01 59 1008.8
20260504032222 64 177 9.0 18.0 0.00 0.01 0.01 58 1008.9
20260504031724 64 176 9.0 15.0 0.00 0.01 0.01 58 1008.8
20260504031221 64 179 9.0 15.0 0.00 0.01 0.01 58 1008.7
20260504030722 64 183 10.0 18.0 0.00 0.01 0.01 58 1008.7
20260504030223 64 183 11.0 19.0 0.00 0.01 0.01 57 1008.6
20260504025722 64 185 11.0 19.0 0.00 0.01 0.01 58 1008.3
20260504025222 64 187 11.0 18.0 0.00 0.01 0.01 58 1008.3
20260504024723 64 185 12.0 21.0 0.00 0.01 0.01 57 1008.2
20260504024222 64 185 11.0 21.0 0.00 0.01 0.01 58 1008.1
20260504023223 64 186 11.0 19.0 0.00 0.01 0.01 57 1008.2
20260504022222 64 186 10.0 15.0 0.00 0.01 0.01 57 1008.5
20260504021723 64 183 10.0 16.0 0.00 0.01 0.01 57 1008.4
20260504021222 64 181 10.0 16.0 0.00 0.01 0.01 57 1008.4
20260504020722 64 182 10.0 16.0 0.00 0.01 0.01 57 1008.5
20260504020223 64 182 9.0 16.0 0.00 0.01 0.01 57 1008.4
20260504015722 64 182 9.0 17.0 0.00 0.01 0.01 56 1008.5
20260504015221 64 183 9.0 18.0 0.00 0.01 0.01 56 1008.5
20260504014724 64 182 10.0 18.0 0.00 0.01 0.01 56 1008.4
20260504014221 64 182 10.0 17.0 0.00 0.01 0.01 56 1008.5
20260504013722 64 181 10.0 17.0 0.00 0.01 0.01 56 1008.4
20260504013223 65 181 11.0 20.0 0.00 0.01 0.01 56 1008.3
20260504012722 65 184 10.0 20.0 0.00 0.01 0.01 56 1008.2
20260504012221 65 184 10.0 17.0 0.00 0.01 0.01 56 1008.2
20260504011221 65 182 9.0 16.0 0.00 0.01 0.01 55 1008.5
20260504010722 65 182 10.0 17.0 0.00 0.01 0.01 55 1008.3
20260504010223 65 182 10.0 17.0 0.00 0.01 0.01 55 1008.2
20260504005222 65 186 10.0 17.0 0.00 0.01 0.01 54 1008.4
20260504004723 66 186 11.0 17.0 0.00 0.01 0.01 54 1008.3
20260504004222 66 184 11.0 17.0 0.00 0.01 0.01 54 1008.4
20260504003722 66 186 10.0 18.0 0.00 0.01 0.01 53 1008.5
20260504003223 66 187 10.0 18.0 0.00 0.01 0.01 53 1008.4
20260504002221 66 184 12.0 20.0 0.00 0.01 0.01 52 1008.6
20260504001724 67 186 12.0 19.0 0.00 0.01 0.01 53 1008.6
20260504001221 67 183 11.0 21.0 0.00 0.01 0.01 53 1008.5
20260504000722 67 179 11.0 21.0 0.00 0.01 0.01 52 1008.5
20260504000223 67 183 11.0 16.0 0.00 0.01 0.01 51 1008.6
20260503235722 67 186 10.0 19.0 0.00 0.01 0.01 52 1008.8
20260503235222 68 189 9.0 19.0 0.00 0.01 0.01 52 1009.1
20260503234723 68 191 9.0 17.0 0.00 0.01 0.01 52 1009.2
20260503233722 68 192 12.0 23.0 0.00 0.01 0.01 52 1009.2
20260503232722 68 197 12.0 21.0 0.00 0.01 0.01 50 1009.3
20260503231723 68 201 12.0 20.0 0.00 0.01 0.01 51 1009.1
20260503231222 68 203 12.0 19.0 0.00 0.01 0.01 50 1009.3
20260503230722 68 202 12.0 26.0 0.00 0.01 0.01 50 1009.4
20260503230223 68 198 13.0 26.0 0.00 0.01 0.01 49 1009.6
20260503225722 68 198 12.0 21.0 0.00 0.01 0.01 50 1009.6
20260503225222 68 202 13.0 22.0 0.00 0.01 0.01 51 1009.5
20260503224723 68 202 15.0 24.0 0.00 0.01 0.01 48 1009.6
20260503223723 68 196 13.0 24.0 0.00 0.01 0.01 48 1009.5
20260503223223 68 200 13.0 24.0 0.00 0.01 0.01 49 1009.2
20260503222721 68 199 15.0 27.0 0.00 0.01 0.01 49 1009.2
20260503222222 68 197 15.0 27.0 0.00 0.01 0.01 48 1009.2
20260503221723 68 196 16.0 29.0 0.00 0.01 0.01 50 1009.2
20260503221221 68 192 17.0 29.0 0.00 0.01 0.01 50 1009.3
20260503220721 68 194 16.0 27.0 0.00 0.01 0.01 48 1009.4
20260503220224 68 194 16.0 33.0 0.00 0.01 0.01 48 1009.3
20260503215222 68 190 14.0 25.0 0.00 0.01 0.01 49 1009.4
20260503214723 68 197 14.0 25.0 0.00 0.01 0.01 50 1009.5
20260503214222 68 201 15.0 25.0 0.00 0.01 0.01 48 1009.4
20260503213722 68 198 16.0 32.0 0.00 0.01 0.01 50 1009.5
20260503212722 68 189 16.0 27.0 0.00 0.01 0.01 51 1009.8
20260503212221 68 193 15.0 24.0 0.00 0.01 0.01 51 1009.8
20260503211723 68 200 15.0 23.0 0.00 0.01 0.01 50 1009.9
20260503211222 68 202 15.0 24.0 0.00 0.01 0.01 48 1010.0
20260503210722 68 198 17.0 27.0 0.00 0.01 0.01 49 1010.2
20260503210224 67 195 18.0 32.0 0.00 0.01 0.01 49 1010.3
20260503205721 67 193 19.0 32.0 0.00 0.01 0.01 47 1010.3
20260503205221 67 193 18.0 28.0 0.00 0.01 0.01 49 1010.4
20260503204221 67 200 18.0 30.0 0.00 0.01 0.01 48 1010.8
20260503203721 67 195 17.0 30.0 0.00 0.01 0.01 49 1010.7
20260503202721 67 187 16.0 30.0 0.00 0.01 0.01 53 1011.2
20260503201723 67 205 14.0 22.0 0.00 0.01 0.01 52 1011.7
20260503201222 67 209 15.0 26.0 0.00 0.01 0.01 51 1011.9
20260503200721 66 204 16.0 26.0 0.00 0.01 0.01 49 1011.9
20260503200223 67 201 14.0 23.0 0.00 0.01 0.01 49 1012.0
20260503195721 66 207 13.0 22.0 0.00 0.01 0.01 52 1012.0
20260503195221 66 207 15.0 25.0 0.00 0.01 0.01 51 1012.1
20260503194722 66 202 16.0 34.0 0.00 0.01 0.01 50 1012.2
20260503194221 66 197 16.0 34.0 0.00 0.01 0.01 51 1012.5
20260503193223 65 209 17.0 30.0 0.00 0.01 0.01 50 1012.6
20260503192721 65 206 16.0 30.0 0.00 0.01 0.01 48 1012.9
20260503192223 65 201 16.0 29.0 0.00 0.01 0.01 49 1013.0
20260503191723 65 206 16.0 33.0 0.00 0.01 0.01 53 1013.1
20260503191221 65 215 17.0 33.0 0.00 0.01 0.01 52 1013.2
20260503190223 65 217 14.0 29.0 0.00 0.01 0.01 52 1013.5
20260503185722 65 217 15.0 29.0 0.00 0.01 0.01 52 1013.6
20260503185221 65 212 15.0 26.0 0.00 0.01 0.01 50 1013.8
20260503184722 64 207 15.0 27.0 0.00 0.01 0.01 52 1013.8
20260503184221 64 208 15.0 27.0 0.00 0.01 0.01 51 1014.0
20260503183721 64 214 14.0 23.0 0.00 0.01 0.01 54 1014.1
20260503183223 64 211 15.0 25.0 0.00 0.01 0.01 53 1014.1
20260503182721 63 200 18.0 29.0 0.00 0.01 0.01 53 1014.1
20260503182221 63 192 18.0 29.0 0.00 0.01 0.01 53 1014.3
20260503181723 63 192 17.0 28.0 0.00 0.01 0.01 57 1014.4
20260503181221 63 199 16.0 28.0 0.00 0.01 0.01 56 1014.4
20260503180721 63 207 16.0 35.0 0.00 0.01 0.01 56 1014.6
20260503180223 63 204 16.0 35.0 0.00 0.01 0.01 56 1014.8
20260503175721 63 198 15.0 25.0 0.00 0.01 0.01 57 1014.8
20260503175221 62 196 17.0 30.0 0.00 0.01 0.01 58 1015.0
20260503174722 62 202 16.0 30.0 0.00 0.01 0.01 57 1015.1
20260503174221 62 201 15.0 28.0 0.00 0.01 0.01 60 1015.3
20260503173722 62 196 17.0 29.0 0.00 0.01 0.01 58 1015.4
20260503173223 62 198 18.0 30.0 0.00 0.01 0.01 59 1015.6
20260503172721 61 199 18.0 30.0 0.00 0.01 0.01 58 1015.8
20260503172221 62 208 16.0 28.0 0.00 0.01 0.01 58 1015.8
20260503171221 61 202 15.0 26.0 0.00 0.01 0.01 59 1016.1
20260503170721 61 203 15.0 26.0 0.00 0.01 0.01 58 1016.2
20260503170223 61 209 14.0 23.0 0.00 0.01 0.01 57 1016.4